Madison, WI

9:28 AM CDT on August 20, 2017 (GMT -0500)
Dane County Regional-Truax

Weather History for KMSN - August, 2014

Change the Weather History Date:

Saturday, August 23, 2014

  Actual Average Record
Temperature  
Mean Temperature 76 °F 68 °F  
Max Temperature 79 °F 79 °F 98 °F (1947)
Min Temperature 72 °F 58 °F 43 °F (1952)
Degree Days  
Heating Degree Days 0 1  
Month to date heating degree days 4 20  
Since 1 June heating degree days 26 90  
Since 1 July heating degree days 17 30  
Cooling Degree Days 11 5  
Month to date cooling degree days 142 127  
Year to date cooling degree days 518 483  
Since 1 June cooling degree days 467 453  
Growing Degree Days 26 (Base 50)    
Moisture  
Dew Point 72 °F    
Average Humidity 90    
Maximum Humidity 100    
Minimum Humidity 79    
Precipitation  
Precipitation 0.03 in 0.13 in 3.00 in (1910)
Month to date precipitation 3.91 3.23  
Year to date precipitation 26.29 23.78  
Snow  
Snow 0.00 in 0.00 in 0.00 in ()
Month to date snowfall 0.0 0.0  
Since 1 June snowfall 0.0 0.0  
Since 1 July snowfall 0.0 0.0  
Snow Depth 0.00 in    
Sea Level Pressure  
Sea Level Pressure 29.97 in    
Wind  
Wind Speed 7 mph (ESE)    
Max Wind Speed 14 mph    
Max Gust Speed 19 mph    
Visibility 5 miles    
Events Rain , Thunderstorm    
T = Trace of Precipitation, MM = Missing Value Source: NWS Daily Summary

Daily Weather History Graph

Daily Weather History Graph

Search for Another Location

Airport or City:

Trip Planner

Search our weather history database for the weather conditions in past years. The results will help you decide how hot, cold, wet, or windy it might be!

Date:

Astronomy

Aug. 23, 2014 Rise Set
Actual Time 6:11 AM CDT 7:47 PM CDT
Civil Twilight 5:41 AM CDT 8:17 PM CDT
Nautical Twilight 5:05 AM CDT 8:53 PM CDT
Astronomical Twilight 4:26 AM CDT 9:32 PM CDT
Moon 4:26 AM CDT (8/23) 6:32 PM CDT (8/23)
Length of Visible Light 14h 35m
Length of Day
13h 35m
Waning Crescent, 3% of the Moon is Illuminated
Aug 23
Waning Crescent
Aug 25
New
Sep 2
First Quarter
Sep 8
Full
Sep 15
Last Quarter

Hourly Weather History & Observations

Time (CDT) Temp. Dew Point Humidity Pressure Visibility Wind Dir Wind Speed Gust Speed Precip Events Conditions
12:08 AM 75.2 °F 73.4 °F 94% 29.98 in 7.0 mi SE 4.6 mph - N/A   Mostly Cloudy
12:21 AM 75.9 °F 73.0 °F 91% 29.97 in 7.0 mi SSE 5.8 mph - N/A   Mostly Cloudy
12:29 AM 75.9 °F 73.0 °F 91% 29.97 in 7.0 mi ESE 5.8 mph - N/A   Mostly Cloudy
12:37 AM 75.9 °F 73.0 °F 91% 29.97 in 7.0 mi SE 6.9 mph - N/A   Mostly Cloudy
12:53 AM 75.9 °F 73.0 °F 91% 29.95 in 7.0 mi SSE 5.8 mph - N/A   Mostly Cloudy
1:08 AM 75.2 °F 73.4 °F 94% 29.97 in 6.0 mi ESE 4.6 mph - N/A   Mostly Cloudy
1:21 AM 75.0 °F 72.0 °F 90% 29.97 in 6.0 mi SE 4.6 mph - N/A   Overcast
1:53 AM 75.9 °F 73.0 °F 91% 29.95 in 5.0 mi SSE 5.8 mph - N/A   Overcast
2:02 AM 75.0 °F 73.0 °F 94% 29.97 in 5.0 mi SSE 5.8 mph - N/A   Overcast
2:10 AM 75.0 °F 73.0 °F 94% 29.97 in 6.0 mi SSE 4.6 mph - N/A   Mostly Cloudy
2:21 AM 75.0 °F 72.0 °F 90% 29.97 in 5.0 mi SSE 3.5 mph - N/A   Mostly Cloudy
2:33 AM 75.9 °F 73.0 °F 91% 29.97 in 5.0 mi South 4.6 mph - N/A   Scattered Clouds
2:39 AM 75.0 °F 73.0 °F 94% 29.98 in 5.0 mi South 4.6 mph - N/A   Mostly Cloudy
2:53 AM 75.0 °F 73.0 °F 94% 29.96 in 5.0 mi South 4.6 mph - N/A   Mostly Cloudy
3:20 AM 73.9 °F 72.0 °F 93% 29.97 in 3.0 mi ESE 4.6 mph - N/A   Overcast
3:30 AM 75.0 °F 73.0 °F 94% 29.97 in 2.0 mi SE 5.8 mph - N/A   Overcast
4:13 AM 75.0 °F 73.0 °F 94% 29.97 in 3.0 mi SSE 6.9 mph - N/A   Overcast
4:23 AM 75.0 °F 73.0 °F 94% 29.97 in 2.0 mi SSE 8.1 mph - N/A   Overcast
4:32 AM 75.0 °F 73.0 °F 94% 29.96 in 1.5 mi SE 5.8 mph - N/A   Overcast
4:53 AM 75.0 °F 73.0 °F 94% 29.94 in 1.0 mi SSE 5.8 mph - N/A   Overcast
5:57 AM 73.9 °F 73.0 °F 97% 29.96 in 0.8 mi SE 3.5 mph - N/A   Overcast
6:53 AM 73.9 °F 73.0 °F 97% 29.97 in 0.8 mi SE 4.6 mph - N/A   Overcast
7:22 AM 75.0 °F 73.0 °F 94% 29.98 in 1.0 mi ESE 4.6 mph - N/A   Overcast
7:53 AM 75.0 °F 73.0 °F 94% 29.97 in 1.0 mi SE 5.8 mph - N/A   Overcast
8:53 AM 75.0 °F 73.0 °F 94% 29.98 in 2.0 mi ESE 6.9 mph - N/A   Overcast
9:53 AM 75.9 °F 73.0 °F 91% 29.99 in 2.0 mi Calm Calm - N/A   Overcast
10:18 AM 77.0 °F 73.0 °F 88% 30.00 in 3.0 mi SE 5.8 mph - N/A   Overcast
10:30 AM 77.0 °F 73.0 °F 88% 30.01 in 3.0 mi Variable 5.8 mph - N/A   Overcast
10:53 AM 78.1 °F 73.9 °F 87% 30.00 in 6.0 mi SE 6.9 mph - N/A   Overcast
11:53 AM 77.0 °F 73.0 °F 88% 29.99 in 5.0 mi ESE 8.1 mph - N/A   Overcast
12:53 PM 77.0 °F 73.4 °F 89% 29.99 in 5.0 mi SE 5.8 mph - N/A   Overcast
1:19 PM 78.1 °F 73.0 °F 84% 30.00 in 7.0 mi SE 8.1 mph - N/A Thunderstorm Thunderstorm
1:53 PM 77.0 °F 73.0 °F 88% 29.96 in 4.0 mi ESE 10.4 mph - 0.00 in Rain Light Rain
2:16 PM 75.9 °F 73.9 °F 94% 29.94 in 4.0 mi East 12.7 mph - 0.01 in Rain Light Rain
2:24 PM 75.9 °F 73.9 °F 94% 29.93 in 4.0 mi ENE 12.7 mph - 0.02 in Rain Light Rain
2:53 PM 77.0 °F 73.9 °F 90% 29.91 in 4.0 mi NE 5.8 mph - 0.02 in Rain Light Rain
3:00 PM 77.0 °F 73.9 °F 90% 29.93 in 5.0 mi East 6.9 mph - 0.01 in Rain Light Rain
3:26 PM 77.0 °F 73.9 °F 90% 29.93 in 5.0 mi ENE 12.7 mph - 0.01 in   Overcast
3:53 PM 78.8 °F 73.4 °F 83% 29.94 in 9.0 mi East 10.4 mph - N/A   Overcast
4:03 PM 79.0 °F 73.0 °F 82% 29.94 in 10.0 mi East 10.4 mph - N/A   Overcast
4:53 PM 79.0 °F 72.0 °F 79% 29.94 in 10.0 mi East 10.4 mph - N/A   Overcast
5:53 PM 78.1 °F 71.1 °F 79% 29.94 in 9.0 mi SSE 12.7 mph 19.6 mph N/A   Mostly Cloudy
6:19 PM 75.9 °F 70.0 °F 82% 29.95 in 10.0 mi SSE 6.9 mph - N/A   Mostly Cloudy
6:53 PM 75.9 °F 69.1 °F 79% 29.95 in 10.0 mi SSE 6.9 mph - N/A   Mostly Cloudy
7:53 PM 75.0 °F 69.1 °F 82% 29.96 in 10.0 mi Calm Calm - N/A   Mostly Cloudy
8:31 PM 73.9 °F 70.0 °F 87% 29.98 in 10.0 mi NE 4.6 mph - N/A   Mostly Cloudy
8:53 PM 75.0 °F 70.0 °F 84% 29.97 in 10.0 mi East 8.1 mph - N/A   Overcast
9:32 PM 75.0 °F 71.1 °F 87% 30.00 in 7.0 mi East 6.9 mph - N/A   Overcast
9:53 PM 75.0 °F 71.1 °F 87% 29.99 in 6.0 mi East 8.1 mph - N/A   Overcast
10:20 PM 75.0 °F 71.1 °F 87% 30.00 in 7.0 mi East 8.1 mph - N/A   Overcast
10:37 PM 73.9 °F 71.1 °F 91% 30.00 in 6.0 mi East 6.9 mph - N/A   Overcast
10:53 PM 73.9 °F 71.1 °F 91% 29.98 in 6.0 mi East 9.2 mph - N/A   Overcast
11:33 PM 73.9 °F 70.0 °F 87% 30.00 in 7.0 mi ESE 6.9 mph - N/A   Overcast
11:53 PM 73.9 °F 70.0 °F 87% 29.99 in 7.0 mi East 8.1 mph - N/A   Overcast